Simultaneous Nadir Overpasses (SNOs) Predictions

Prediction of SNOs between AURA and NPP Satellite Orbit:

Table of predicted SNOs for the next 14.0 days since TLE Epoch: 5/30/2015
Index Date (AURA) Time (AURA) Lat,Lon (AURA) SZA (AURA ) Date (NPP) Time (NPP) Lat,Lon (NPP) SZA (NPP ) Distance(km) Time Diff (sec)
1 06/02/2015 00:25:03 78.27, 63.56 72.25 06/02/2015 00:23:50 78.28, 63.67 72.29 2.55 73
2 06/02/2015 01:14:19 -78.75,-126.32 108.39 06/02/2015 01:14:23 -78.76,-126.19 108.42 2.92 4
3 06/04/2015 16:41:29 78.31, 179.61 71.91 06/04/2015 16:40:43 78.30, 179.53 71.96 1.86 46
4 06/04/2015 17:30:46 -78.74, -10.47 108.69 06/04/2015 17:31:17 -78.74, -10.53 108.70 1.29 31
5 06/07/2015 08:57:50 78.58, -63.11 71.29 06/07/2015 08:57:30 78.59, -63.03 71.29 1.82 20
6 06/07/2015
